カタログに戻る

STARLINK-37406

運用中通信VLEO
NORAD 69199·PAYLOAD·🇺🇸 United States

打ち上げ May 25, 2026 から Cape Canaveral Space Force Station

Loading…

次のパス (今後24時間)

TLE

最新Source: CelesTrak SupGP

元期: Sep 14, 2026, 21:08 UTC

1 69199C 26114T   26257.88104167 -.00015045  00000+0 -44367-3 0  2575
2 69199  53.1572 139.9452 0001258  81.1782 301.7987 15.34457642    12

AllMySatでSTARLINK-37406をリアルタイム追跡

Download on the App Store